Погода в Минске

Погода в Минске : погода сейчас, прогноз погоды и архив. Всё, что Вы хотите узнать о погоде в Минске!

Хотите узнать прогноз погоды Минск? Тогда Вам сюда: Погода Минск

Поиск расширенной информации на нашем сайте:

Полезная информация: Купить пленку пвх хабаровск еще здесь.
кованые лестничные ограждения цена, vorota.

Другие новости

Новости СМИ2

Главная страница сайта

Новости сайта

02.10.2013

Напоминаем, что на нашем новом сайте вы можете получить высокодетализированные прогнозы погоды по пунктам России, СНГ и мира (включающие важные для авиации метеовеличины, такие как направление и скорость ветра, видимость, явления погоды, количество и форма облачности, нижняя и верхняя граница облачности), а также ознакомиться с разнообразными материалами по авиационной метеорологии и подборкой полезных ссылок на эту тему.

Сайт Метеоцентр.Азия посвящён разработке технологий оптимизации авиаметеорологического обслуживания, включая проектирование и перспективное создание нескольких автоматизированных авиаметеорологических систем:
- система выпуска высокодетальных прогностических карт явлений погоды для нижнего воздушного пространства по России и ближнему зарубежью;
- система верификации прогнозов TAF (выпускаемых синоптиками официальных АМСГ РФ и ближнего зарубежья) и AUTOTAF (выпускаемых сайтом Метеоцентр.Азия) - выявление ошибок, онлайн-сопоставление с фактической погодой METAR, автоматическое внесение коррективов в прогнозы при резком отклонении фактической погоды от прогноза, подсчёт оправдываемости прогнозов по элементам и в целом;
- система обработки, анализа и отображения авиаметеорологической информации для применения провайдерами метеорологической информации.

Рекомендуем: мастер космоэнергетики

Погода в Минске - сегодня

Время (UTC), дата Ветер
(°,м/с) 
Видим.   Явления Облачность Т
(°С)
Тd
(°С)
f(%) Тe
(°С)
Pmin
(гПа)
dP
(гПа)
Po
(мм)
O2
(г/м3)
Тmin Tmax R s Состояние
почвы
18 18.01.17 240 (ЮЗ) 10 км    ясно 
-6.8 -8.6 87 -8  1040.3  -0.1  758  314    -3.5  0.0  23   
21 18.01.17 240 (ЮЗ) 10 км    ясно 
-7.4 -9.4 86 -9  1040.1  -0.3  758  315           
00 19.01.17 260 (З) 10 км    ясно 
-8.3 -10.5 84 -8  1038.5  -1.6  757  315           
03 19.01.17 240 (ЮЗ) 9000 м  дымка  8/0 верхняя 
[Ci fib]
-8.8 -10.8 85 -10  1037.4  -1.1  756  316        23   
06 19.01.17 200 (Ю) 6000 м  дымка  10/10 300 м 
[Sc]
-8.4 -10.4 85 -8  1035.9  -1.4  755  315  -9.8      23  равномерный
сухой снег
100% 
09 19.01.17 230 (ЮЗ) 7000 м  дымка  10/10 210 м 
[Sc]
-6.6 -8.9 84 -9  1034.9  -0.8  754  312           
12 19.01.17 230 (ЮЗ) 6000 м  слаб. снег  10/10 270 м 
[Sc]
-6.5 -8.9 83 -9  1032.7  -2.1  752  312           
15 19.01.17 240 (ЮЗ) 6000 м  в посл. час снег  10/10 210 м 
[Sc]
-6 -7.4 90 -9  1031.9  -0.8  752  311      0.2     
18 19.01.17 250 (З) 7000 м  слаб. снег  10/10 270 м 
[Sc]
-5.4 -7.3 86 -8  1029.9  -1.8  751  309    -5.3  0.2  22   
21 19.01.17 250 (З) 4200 м  слаб. снег  10/10 360 м 
[Sc]
-5.2 -6.7 89 -8  1028.3  -1.6  749  309           
00 20.01.17 250 (З) 5000 м  дымка{снег}  10/10 210 м 
[Sc]
-4.1 -5.3 91 -5  1027.1  -1  749  307           
03 20.01.17 270 (З) 4100 м  дымка{снег}  10/10 270 м 
[Sc]
-3.2 -4.1 93 -5  1025.6  -1.4  748  305      0.2  21   
06 20.01.17 280 (З) 4800 м  дымка{снег}  10/10 330 м 
[Sc]
-2.5 -3.4 94 -5  1025.5  748  304  -5.4    0.2  21  равномерный
сухой снег
100% 
09 20.01.17 300 (СЗ) 5000 м  дымка  10/10 300 м 
[Sc]
-1.2 -1.9 95 -2  1026  0.6  748  303           
12 20.01.17 270 (З) 5000 м  дымка  10/10 330 м 
[Sc]
-0.5 -1.2 95 -1  1025.2  -0.7  747  302           
15 20.01.17 270 (З) 10 км    10/10 210 м 
[Sc]
+0.2 -0.8 93 -1  1024.6  -0.5  747  301           
18 20.01.17 260 (З) 2{10}  10 км    10/10 330 м 
[Sc]
-0.1 -1 94 -1  1022.9  -1.7  746  301    +0.3    20   
21 20.01.17 270 (З) 4-10  10 км    10/10 330 м 
[Sc]
+0.2 -0.6 94 -2  1022.2  -0.6  745  300           
00 21.01.17 280 (З) 4{10}  6000 м  дымка  10/10 330 м 
[Sc]
+0.4 -0.2 96 -2  1020.7  -1.4  744  299           
03 21.01.17 290 (З) 11000 м    10/10 330 м 
[Sc]
+0.8 +0.1 95 -2  1020.4  -0.3  744  299        19   
06 21.01.17 300 (СЗ) 10 км    10/10 270 м 
[Sc]
+0.8 +0.2 96 -1  1021.3  0.9  745  299  -0.1      18  равномерный
мокрый или
старый снег
100% 
09 21.01.17 300 (СЗ) 11000 м  {морось}  10/10 270 м 
[Sc]
+1.2 -0 92 -1  1022.9  1.6  746  299           
12 21.01.17 300 (СЗ) 6000 м  слаб. снег{дождь}  10/10 210 м 
[Sc]
+1.1 -0.1 92 1023.6  0.6  746  300           
15 21.01.17 320 (СЗ) 15000 м  в посл. час снег{дождь}  8/8 400 м 
[Sc]
+0.8 -0.6 90 -1  1025.1  1.5  748  300      0.3     
18 21.01.17 310 (СЗ) 3{10}  17000 м  {снег, дождь}  6/6 500 м 
[Sc]
-0.3 -2.4 86 -2  1028.1  2.8  750  303    +1.5  0.3  16   
Время (UTC), дата Ветер
(°,м/с) 
Видим.   Явления Облачность Т
(°С)
Тd
(°С)
f(%) Тe
(°С)
Pmin
(гПа)
dP
(гПа)
Po
(мм)
O2
(г/м3)
Тmin Tmax R s Состояние
почвы

Для получения пояснительной информации подведите курсор к названию столбца.

ПОГОДА в Минске - архив

Всё, что Вы хотите узнать о погоде в Минске - удобно и подробно!

Выберите нужную дату (начиная с 1 января 2015* года) и нажмите кнопку "Найти".
Будут отображены архивные сводки погоды по пункту Минск, начиная с указанной даты.


Отображать данные в формате CSV (для использования в таблицах Excel)


Внимание! Наш архив погоды предназначен исключительно для личного некоммерческого использования в познавательных целях. Если Вам необходимы официальные справки о состоянии погоды (для производственных, юридических, коммерческих и т.п. целей), обращайтесь в органы Росгидромета.

*Примечание: данная дата относится к архиву по метеостанциям СССР (Россия, СНГ, Балтия).
Архив по метеостанциям Зарубежной Европы и Азии (кроме Китая) хранится 10 дней, по другим регионам земного шара (Китай, Африка, Америка, Австралия, Океания) - 1 день.

Минск - район местоположения метеостанции


Название, широта, долгота, высота метеостанции:
Минск (город) 53.9°ш. 27.6°д. 231 м над ур. моря [Беларусь]

Дополнительная информация

В oтличие oт бoльшинства пoгoдных сайтoв мы публикуем пoдрoбную метеoинфoрмацию в детальнoм прoфессиoнальнoм фoрмате.

Характеристики температуры и влажнoсти вoздуха измеряются на высoте 2 м в тени вдали oт зданий и деревьев.
Скoрoсть ветра измеряется на высoте 10 м (на урoвне рoста челoвека скoрoсть ветра ниже в 1.5-2 раза). Если метеoстанция нахoдится в гoрoде или в лесу, тo скoрoсть ветра занижена на 2-4 м/с пo сравнению с oткрытым местoм. Скoрoсть ветра над акватoриями крупных рек и oзёр, а также на вершинах хoлмoв на 2-5 м/с выше, чем в oбычных услoвиях.
Атмoсфернoе давление в разных тoчках местнoсти мoжет значительнo oтличаться oт давления на метеoстанции, в зависимoсти oт услoвий рельефа (при пoдъёме на 10 м давление пoнижается примернo на 1 мм рт.ст.).